Glendive, MT

7:49 PM MDT on May 28, 2017 (GMT -0600)
Dawson Community

Weather History for KGDV - November, 2013

Change the Weather History Date:

Thursday, November 14, 2013

  Actual Average Record
Temperature  
Mean Temperature 38 °F -  
Max Temperature 50 °F 39 °F 66 °F (2016)
Min Temperature 26 °F 19 °F -18 °F (2014)
Degree Days  
Heating Degree Days 27    
Moisture  
Dew Point 27 °F    
Average Humidity 67    
Maximum Humidity 93    
Minimum Humidity 43    
Precipitation  
Precipitation 0.00 in - - ()
Sea Level Pressure  
Sea Level Pressure 29.84 in    
Wind  
Wind Speed 13 mph (West)    
Max Wind Speed 20 mph    
Max Gust Speed 26 mph    
Visibility 10 miles    
Events      
Averages and records for this station are not official NWS values.
T = Trace of Precipitation, MM = Missing Value Source: NWS Daily Summary

Daily Weather History Graph

Daily Weather History Graph

Search for Another Location

Airport or City:

Trip Planner

Search our weather history database for the weather conditions in past years. The results will help you decide how hot, cold, wet, or windy it might be!

Date:

Astronomy

Nov. 14, 2013 Rise Set
Actual Time 7:01 AM MST 4:24 PM MST
Civil Twilight 6:28 AM MST 4:58 PM MST
Nautical Twilight 5:51 AM MST 5:35 PM MST
Astronomical Twilight 5:15 AM MST 6:11 PM MST
Moon 2:56 PM MST (11/14) 3:49 AM MST (11/14)
Length of Visible Light 10h 29m
Length of Day
9h 22m
Waxing Gibbous, 92% of the Moon is Illuminated
Nov 14
Waxing Gibbous
Nov 17
Full
Nov 25
Last Quarter
Dec 2
New
Dec 9
First Quarter

Hourly Weather History & Observations

Time (MST) Temp. Windchill Dew Point Humidity Pressure Visibility Wind Dir Wind Speed Gust Speed Precip Events Conditions
12:15 AM 41.0 °F 31.9 °F 30.2 °F 65% 29.94 in 10.0 mi WNW 19.6 mph 26.5 mph N/A   Clear
12:35 AM 41.0 °F 31.9 °F 30.2 °F 65% 29.93 in 10.0 mi West 19.6 mph 24.2 mph N/A   Clear
12:55 AM 39.2 °F 30.2 °F 30.2 °F 70% 29.93 in 10.0 mi West 17.3 mph - N/A   Clear
1:15 AM 39.2 °F 29.8 °F 30.2 °F 70% 29.93 in 10.0 mi West 18.4 mph 26.5 mph N/A   Clear
1:35 AM 39.2 °F 29.6 °F 30.2 °F 70% 29.93 in 10.0 mi WNW 19.6 mph 24.2 mph N/A   Clear
1:55 AM 39.2 °F 29.6 °F 30.2 °F 70% 29.93 in 10.0 mi WNW 19.6 mph 24.2 mph N/A   Clear
2:15 AM 39.2 °F 30.2 °F 28.4 °F 65% 29.93 in 10.0 mi WNW 17.3 mph - N/A   Clear
2:55 AM 37.4 °F 28.9 °F 28.4 °F 70% 29.93 in 10.0 mi WNW 13.8 mph - N/A   Clear
3:15 AM 35.6 °F 28.0 °F 28.4 °F 75% 29.94 in 10.0 mi West 10.4 mph - N/A   Clear
3:55 AM 35.6 °F 29.2 °F 28.4 °F 75% 29.93 in 10.0 mi WNW 8.1 mph - N/A   Clear
4:15 AM 33.8 °F 26.4 °F 28.4 °F 81% 29.93 in 10.0 mi West 9.2 mph - N/A   Clear
4:35 AM 35.6 °F 28.0 °F 28.4 °F 75% 29.93 in 10.0 mi West 10.4 mph - N/A   Clear
4:55 AM 35.6 °F 30.7 °F 28.4 °F 75% 29.92 in 10.0 mi WNW 5.8 mph - N/A   Clear
5:15 AM 35.6 °F 28.6 °F 26.6 °F 70% 29.92 in 10.0 mi West 9.2 mph - N/A   Clear
5:35 AM 35.6 °F 28.6 °F 28.4 °F 75% 29.91 in 10.0 mi West 9.2 mph - N/A   Clear
5:55 AM 37.4 °F 28.9 °F 28.4 °F 70% 29.92 in 10.0 mi West 13.8 mph - N/A   Clear
6:15 AM 37.4 °F 30.3 °F 26.6 °F 65% 29.91 in 10.0 mi West 10.4 mph - N/A   Clear
7:15 AM 35.6 °F - 26.6 °F 70% 29.90 in 10.0 mi Calm Calm - N/A   Clear
7:35 AM 35.6 °F - 26.6 °F 70% 29.91 in 10.0 mi Calm Calm - N/A   Clear
7:55 AM 35.6 °F 31.7 °F 26.6 °F 70% 29.90 in 10.0 mi West 4.6 mph - N/A   Clear
8:15 AM 37.4 °F 30.8 °F 28.4 °F 70% 29.89 in 10.0 mi WSW 9.2 mph - N/A   Clear
8:55 AM 41.0 °F 35.2 °F 26.6 °F 57% 29.89 in 10.0 mi West 9.2 mph - N/A   Clear
9:15 AM 42.8 °F 35.8 °F 28.4 °F 57% 29.89 in 10.0 mi West 13.8 mph 20.7 mph N/A   Scattered Clouds
9:55 AM 44.6 °F 37.4 °F 28.4 °F 53% 29.88 in 10.0 mi West 16.1 mph - N/A   Scattered Clouds
10:15 AM 44.6 °F 37.4 °F 28.4 °F 53% 29.88 in 10.0 mi West 16.1 mph 20.7 mph N/A   Clear
10:35 AM 44.6 °F 37.4 °F 28.4 °F 53% 29.88 in 10.0 mi West 16.1 mph 19.6 mph N/A   Clear
10:55 AM 46.4 °F 40.7 °F 28.4 °F 50% 29.86 in 10.0 mi West 12.7 mph 19.6 mph N/A   Clear
11:15 AM 48.2 °F - 28.4 °F 46% 29.86 in 10.0 mi WNW 18.4 mph 25.3 mph N/A   Clear
11:35 AM 46.4 °F 40.4 °F 28.4 °F 50% 29.85 in 10.0 mi WNW 13.8 mph 21.9 mph N/A   Clear
11:55 AM 48.2 °F - 28.4 °F 46% 29.84 in 10.0 mi WNW 18.4 mph - N/A   Clear
12:15 PM 48.2 °F - 28.4 °F 46% 29.84 in 10.0 mi WNW 15.0 mph 20.7 mph N/A   Partly Cloudy
12:35 PM 50.0 °F - 28.4 °F 43% 29.83 in 10.0 mi West 13.8 mph 21.9 mph N/A   Partly Cloudy
12:55 PM 50.0 °F - 28.4 °F 43% 29.82 in 10.0 mi WNW 12.7 mph 21.9 mph N/A   Clear
1:15 PM 50.0 °F - 28.4 °F 43% 29.82 in 10.0 mi NW 11.5 mph 20.7 mph N/A   Clear
1:35 PM 50.0 °F - 30.2 °F 47% 29.82 in 10.0 mi WNW 12.7 mph 19.6 mph N/A   Clear
1:55 PM 48.2 °F - 28.4 °F 46% 29.81 in 10.0 mi WNW 15.0 mph - N/A   Clear
2:15 PM 48.2 °F - 28.4 °F 46% 29.81 in 10.0 mi WNW 12.7 mph - N/A   Clear
2:55 PM 48.2 °F - 28.4 °F 46% 29.81 in 10.0 mi WNW 6.9 mph - N/A   Clear
3:15 PM 48.2 °F - 28.4 °F 46% 29.81 in 10.0 mi NW 8.1 mph - N/A   Clear
3:35 PM 46.4 °F 41.9 °F 26.6 °F 46% 29.80 in 10.0 mi WNW 9.2 mph - N/A   Clear
3:55 PM 42.8 °F 38.6 °F 26.6 °F 53% 29.80 in 10.0 mi WNW 6.9 mph - N/A   Clear
4:15 PM 39.2 °F 33.6 °F 26.6 °F 61% 29.80 in 10.0 mi WNW 8.1 mph - N/A   Clear
5:15 PM 33.8 °F 28.6 °F 24.8 °F 70% 29.79 in 10.0 mi West 5.8 mph - N/A   Clear
5:35 PM 33.8 °F 30.8 °F 24.8 °F 70% 29.79 in 10.0 mi NW 3.5 mph - N/A   Clear
5:55 PM 32.0 °F 24.8 °F 24.8 °F 75% 29.78 in 10.0 mi WNW 8.1 mph - N/A   Clear
6:15 PM 30.2 °F 24.3 °F 26.6 °F 86% 29.78 in 10.0 mi West 5.8 mph - N/A   Clear
6:35 PM 33.8 °F 28.6 °F 26.6 °F 75% 29.77 in 10.0 mi West 5.8 mph - N/A   Clear
6:55 PM 30.2 °F 23.4 °F 24.8 °F 80% 29.77 in 10.0 mi NW 6.9 mph - N/A   Clear
7:35 PM 28.4 °F 21.2 °F 24.8 °F 86% 29.76 in 10.0 mi West 6.9 mph - N/A   Clear
7:55 PM 28.4 °F 23.3 °F 23.0 °F 80% 29.76 in 10.0 mi West 4.6 mph - N/A   Clear
8:15 PM 30.2 °F 26.7 °F 24.8 °F 80% 29.75 in 10.0 mi SSW 3.5 mph - N/A   Clear
8:55 PM 28.4 °F 22.2 °F 24.8 °F 86% 29.74 in 10.0 mi WSW 5.8 mph - N/A   Clear
9:15 PM 28.4 °F 24.6 °F 24.8 °F 86% 29.74 in 10.0 mi SW 3.5 mph - N/A   Clear
9:35 PM 28.4 °F 23.3 °F 26.6 °F 93% 29.74 in 10.0 mi South 4.6 mph - N/A   Clear
9:55 PM 26.6 °F 19.1 °F 24.8 °F 93% 29.72 in 10.0 mi SSW 6.9 mph - N/A   Clear
10:15 PM 26.6 °F 19.1 °F 21.2 °F 80% 29.71 in 10.0 mi SW 6.9 mph - N/A   Clear
10:35 PM 26.6 °F 17.5 °F 21.2 °F 80% 29.71 in 10.0 mi SW 9.2 mph - N/A   Clear
10:55 PM 28.4 °F 21.2 °F 24.8 °F 86% 29.70 in 10.0 mi South 6.9 mph - N/A   Clear
11:15 PM 28.4 °F 20.4 °F 24.8 °F 86% 29.70 in 10.0 mi South 8.1 mph - N/A   Clear
11:35 PM 28.4 °F 19.7 °F 24.8 °F 86% 29.69 in 10.0 mi South 9.2 mph - N/A   Clear
11:55 PM 28.4 °F 20.4 °F 23.0 °F 80% 29.69 in 10.0 mi South 8.1 mph - N/A   Clear